Location: Newark
(42.3070°N, 2.7230°E)
Time: 07:31:26
(UTC+00:00)

Tiangong 2 - Visible Passes

Search period start: 18 July 2019 00:00
Search period end: 28 July 2019 00:00
Orbit: 378 x 386 km, 42.8° (Epoch: 18 July)

Date Brightness Start Highest point End Pass type
(mag) Time Alt. Az. Time Alt. Az. Time Alt. Az.
18 Jul 1.0 20:13:09 10° W 20:16:17 83° SSW 20:19:09 12° ESE visible
18 Jul 3.2 21:50:05 10° W 21:51:17 18° WSW 21:51:17 18° WSW visible
19 Jul 1.7 20:49:33 10° W 20:52:31 41° SSW 20:53:28 31° SSE visible
20 Jul 1.2 19:49:08 10° W 19:52:14 62° SSW 19:55:20 10° ESE visible
20 Jul 3.3 21:26:30 10° WSW 21:27:50 15° SW 21:27:50 15° SW visible
21 Jul 2.4 20:25:40 10° W 20:28:22 26° SSW 20:30:04 17° SSE visible
23 Jul 3.2 20:02:01 10° WSW 20:04:08 17° SSW 20:06:15 10° S visible
